DAL1121 KPNS-KCMH

Flight info

Callsign DAL1121
Flight time 1h 37m
Altitude 35000
Route PENSI MGM RMG VXV MCGNS SCRLT2
Aircraft A21N/M-SDE2E3FGHIRWXY/LB1

Departure

Time 2026-04-27 14:14
Airport Pensacola International Airport (KPNS)

Arrival

Time 2026-04-27 15:52
Airport John Glenn Columbus International Airport (KCMH)
Time Latitude Longitude Altitude Speed Heading
2026-04-27 13:38 30.47489 -87.19276 137 ft 0 kts 27°
2026-04-27 14:01 30.47488 -87.19277 133 ft 2 kts 27°
2026-04-27 14:02 30.47465 -87.19289 137 ft 4 kts 30°
2026-04-27 14:02 30.47451 -87.19308 137 ft 4 kts 68°
2026-04-27 14:02 30.47450 -87.19335 137 ft 4 kts 115°
2026-04-27 14:02 30.47458 -87.19353 137 ft 0 kts 117°
2026-04-27 14:10 30.47451 -87.19335 136 ft 6 kts 115°
2026-04-27 14:10 30.47414 -87.19290 137 ft 9 kts 163°
2026-04-27 14:11 30.47345 -87.19282 137 ft 12 kts 141°
2026-04-27 14:11 30.47346 -87.19185 137 ft 14 kts 77°
2026-04-27 14:11 30.47367 -87.19070 137 ft 16 kts 78°
2026-04-27 14:11 30.47347 -87.18974 136 ft 14 kts 161°
2026-04-27 14:12 30.47243 -87.18945 135 ft 18 kts 166°
2026-04-27 14:12 30.47107 -87.18909 137 ft 23 kts 167°
2026-04-27 14:12 30.46940 -87.18864 137 ft 26 kts 168°
2026-04-27 14:12 30.46759 -87.18817 138 ft 27 kts 167°
2026-04-27 14:13 30.46567 -87.18766 137 ft 29 kts 166°
2026-04-27 14:13 30.46424 -87.18727 135 ft 10 kts 158°
2026-04-27 14:13 30.46409 -87.18645 135 ft 12 kts 78°
2026-04-27 14:13 30.46445 -87.18577 134 ft 9 kts
2026-04-27 14:14 30.46571 -87.18610 135 ft 45 kts 347°
2026-04-27 14:14 30.47154 -87.18763 133 ft 123 kts 347°
2026-04-27 14:14 30.48142 -87.19025 410 ft 150 kts 348°
2026-04-27 14:14 30.49179 -87.19370 877 ft 161 kts 342°
2026-04-27 14:15 30.50274 -87.19779 1393 ft 174 kts 346°
2026-04-27 14:15 30.51507 -87.20170 1868 ft 193 kts 349°
2026-04-27 14:15 30.52885 -87.20528 2297 ft 220 kts 349°
2026-04-27 14:15 30.54487 -87.20932 2718 ft 249 kts 349°
2026-04-27 14:16 30.56252 -87.21383 3337 ft 267 kts 348°
2026-04-27 14:16 30.58000 -87.21834 4723 ft 247 kts 348°
2026-04-27 14:16 30.59735 -87.22281 5412 ft 264 kts 348°
2026-04-27 14:16 30.61556 -87.22748 6224 ft 271 kts 347°
2026-04-27 14:17 30.63400 -87.23226 7112 ft 273 kts 347°
2026-04-27 14:17 30.65269 -87.23712 8004 ft 276 kts 347°
2026-04-27 14:17 30.67146 -87.24204 8895 ft 277 kts 347°
2026-04-27 14:17 30.69036 -87.24700 9812 ft 279 kts 347°
2026-04-27 14:18 30.70962 -87.25203 10387 ft 293 kts 347°
2026-04-27 14:18 30.73023 -87.25741 10692 ft 314 kts 347°
2026-04-27 14:18 30.75225 -87.26312 10963 ft 335 kts 347°
2026-04-27 14:18 30.77596 -87.26772 11215 ft 356 kts 355°
2026-04-27 14:19 30.80105 -87.26512 11708 ft 369 kts 12°
2026-04-27 14:19 30.82507 -87.25398 12415 ft 376 kts 25°
2026-04-27 14:19 30.84794 -87.23889 13149 ft 380 kts 27°
2026-04-27 14:19 30.87089 -87.22331 13872 ft 383 kts 27°
2026-04-27 14:20 30.89410 -87.20775 14509 ft 387 kts 26°
2026-04-27 14:20 30.91760 -87.19214 15133 ft 391 kts 26°
2026-04-27 14:20 30.93329 -87.18174 15562 ft 394 kts 26°
2026-04-27 14:20 30.95729 -87.16595 16152 ft 399 kts 26°
2026-04-27 14:21 30.98160 -87.15002 16762 ft 403 kts 26°
2026-04-27 14:21 31.00614 -87.13382 17386 ft 408 kts 27°
2026-04-27 14:21 31.03094 -87.11743 18000 ft 412 kts 27°
2026-04-27 14:21 31.06418 -87.09540 18750 ft 417 kts 27°
2026-04-27 14:22 31.08126 -87.08409 19110 ft 420 kts 27°
2026-04-27 14:22 31.10677 -87.06718 19642 ft 424 kts 27°
2026-04-27 14:22 31.13254 -87.05018 20176 ft 427 kts 27°
2026-04-27 14:22 31.15852 -87.03304 20707 ft 431 kts 27°
2026-04-27 14:23 31.18472 -87.01573 21225 ft 434 kts 27°
2026-04-27 14:23 31.21115 -86.99827 21751 ft 438 kts 27°
2026-04-27 14:23 31.23776 -86.98059 22251 ft 442 kts 27°
2026-04-27 14:23 31.26428 -86.96299 22737 ft 446 kts 27°
2026-04-27 14:24 31.29138 -86.94501 23264 ft 450 kts 27°
2026-04-27 14:24 31.31870 -86.92687 23759 ft 453 kts 27°
2026-04-27 14:24 31.34618 -86.90858 24183 ft 456 kts 27°
2026-04-27 14:24 31.37382 -86.89017 24620 ft 458 kts 27°
2026-04-27 14:25 31.40163 -86.87165 25066 ft 460 kts 27°
2026-04-27 14:25 31.42950 -86.85307 25495 ft 463 kts 27°
2026-04-27 14:25 31.45757 -86.83438 25910 ft 465 kts 27°
2026-04-27 14:25 31.48574 -86.81557 26310 ft 467 kts 27°
2026-04-27 14:26 31.51393 -86.79673 26807 ft 466 kts 27°
2026-04-27 14:26 31.54206 -86.77797 27344 ft 464 kts 27°
2026-04-27 14:26 31.57002 -86.75929 27891 ft 462 kts 27°
2026-04-27 14:26 31.59788 -86.74063 28396 ft 460 kts 27°
2026-04-27 14:27 31.62563 -86.72205 28916 ft 458 kts 27°
2026-04-27 14:27 31.65330 -86.70351 29489 ft 457 kts 27°
2026-04-27 14:27 31.68086 -86.68509 30024 ft 455 kts 27°
2026-04-27 14:27 31.70831 -86.66673 30454 ft 454 kts 27°
2026-04-27 14:28 31.73570 -86.64833 30837 ft 453 kts 27°
2026-04-27 14:28 31.76309 -86.62997 31209 ft 454 kts 27°
2026-04-27 14:28 31.79056 -86.61151 31487 ft 455 kts 27°
2026-04-27 14:28 31.81809 -86.59299 31784 ft 456 kts 27°
2026-04-27 14:29 31.84557 -86.57451 32132 ft 456 kts 27°
2026-04-27 14:29 31.87312 -86.55598 32504 ft 454 kts 27°
2026-04-27 14:29 31.90038 -86.53758 32943 ft 451 kts 27°
2026-04-27 14:29 31.92757 -86.51918 33279 ft 450 kts 27°
2026-04-27 14:30 31.95470 -86.50088 33557 ft 450 kts 26°
2026-04-27 14:30 31.98185 -86.48259 33854 ft 450 kts 26°
2026-04-27 14:30 32.00904 -86.46424 34128 ft 450 kts 26°
2026-04-27 14:30 32.03619 -86.44588 34389 ft 450 kts 26°
2026-04-27 14:31 32.06333 -86.42755 34639 ft 449 kts 26°
2026-04-27 14:31 32.09043 -86.40927 34889 ft 449 kts 26°
2026-04-27 14:31 32.11755 -86.39096 35040 ft 449 kts 26°
2026-04-27 14:32 32.17166 -86.35430 35057 ft 448 kts 26°
2026-04-27 14:32 32.22585 -86.31784 35052 ft 447 kts 24°
2026-04-27 14:33 32.28113 -86.28430 35048 ft 447 kts 23°
2026-04-27 14:33 32.33621 -86.25094 35048 ft 448 kts 23°
2026-04-27 14:34 32.39174 -86.21737 35022 ft 448 kts 23°
2026-04-27 14:34 32.44725 -86.18366 35029 ft 448 kts 23°
2026-04-27 14:35 32.50234 -86.15028 35024 ft 442 kts 23°
2026-04-27 14:35 32.55696 -86.11708 35024 ft 441 kts 23°
2026-04-27 14:36 32.61167 -86.08375 35045 ft 443 kts 23°
2026-04-27 14:36 32.66646 -86.05034 35057 ft 443 kts 23°
2026-04-27 14:37 32.72126 -86.01686 35069 ft 443 kts 23°
2026-04-27 14:37 32.77609 -85.98338 35087 ft 443 kts 23°
2026-04-27 14:38 32.83091 -85.94978 35105 ft 444 kts 23°
2026-04-27 14:38 32.88630 -85.91580 35103 ft 449 kts 23°
2026-04-27 14:39 32.94189 -85.88171 35105 ft 450 kts 23°
2026-04-27 14:39 32.99746 -85.84746 35095 ft 450 kts 23°
2026-04-27 14:40 33.05310 -85.81321 35050 ft 450 kts 23°
2026-04-27 14:40 33.10878 -85.77892 35058 ft 452 kts 22°
2026-04-27 14:41 33.16480 -85.74434 35054 ft 454 kts 23°
2026-04-27 14:41 33.22095 -85.70959 35070 ft 454 kts 23°
2026-04-27 14:42 33.27703 -85.67487 35059 ft 454 kts 23°
2026-04-27 14:42 33.33322 -85.64002 35074 ft 455 kts 23°
2026-04-27 14:43 33.38939 -85.60512 35073 ft 455 kts 23°
2026-04-27 14:43 33.44562 -85.57019 35083 ft 455 kts 23°
2026-04-27 14:44 33.50174 -85.53520 35086 ft 455 kts 23°
2026-04-27 14:44 33.55799 -85.50011 35078 ft 455 kts 23°
2026-04-27 14:45 33.61418 -85.46500 35081 ft 456 kts 22°
2026-04-27 14:45 33.67063 -85.42969 35076 ft 458 kts 22°
2026-04-27 14:46 33.72663 -85.39454 35090 ft 451 kts 22°
2026-04-27 14:46 33.78213 -85.35970 35084 ft 449 kts 22°
2026-04-27 14:47 33.83753 -85.32487 35079 ft 449 kts 22°
2026-04-27 14:47 33.89299 -85.28994 35099 ft 451 kts 22°
2026-04-27 14:48 33.94867 -85.25491 35109 ft 452 kts 22°
2026-04-27 14:48 34.03183 -85.20235 35112 ft 452 kts 22°
2026-04-27 14:49 34.08754 -85.16709 35108 ft 452 kts 22°
2026-04-27 14:49 34.14325 -85.13178 35127 ft 452 kts 23°
2026-04-27 14:50 34.19842 -85.09500 35124 ft 453 kts 25°
2026-04-27 14:50 34.25325 -85.05731 35127 ft 453 kts 25°
2026-04-27 14:51 34.30802 -85.01959 35130 ft 453 kts 25°
2026-04-27 14:51 34.35387 -84.98799 35125 ft 453 kts 25°
2026-04-27 14:52 34.41751 -84.94414 35123 ft 453 kts 25°
2026-04-27 14:52 34.47223 -84.90626 35137 ft 453 kts 25°
2026-04-27 14:53 34.52692 -84.86838 35138 ft 453 kts 25°
2026-04-27 14:53 34.58162 -84.83049 35130 ft 453 kts 25°
2026-04-27 14:54 34.63632 -84.79250 35148 ft 453 kts 25°
2026-04-27 14:54 34.69093 -84.75451 35141 ft 452 kts 25°
2026-04-27 14:55 34.74550 -84.71649 35135 ft 452 kts 25°
2026-04-27 14:55 34.80011 -84.67842 35124 ft 452 kts 25°
2026-04-27 14:56 34.85456 -84.64039 35110 ft 450 kts 25°
2026-04-27 14:56 34.90865 -84.60253 35110 ft 447 kts 25°
2026-04-27 14:57 34.96254 -84.56480 35081 ft 447 kts 25°
2026-04-27 14:57 35.01642 -84.52699 35078 ft 446 kts 25°
2026-04-27 14:58 35.07025 -84.48914 35075 ft 446 kts 25°
2026-04-27 14:58 35.12409 -84.45126 35080 ft 447 kts 25°
2026-04-27 14:59 35.17788 -84.41333 35089 ft 446 kts 25°
2026-04-27 14:59 35.23129 -84.37561 35091 ft 446 kts 26°
2026-04-27 15:00 35.28503 -84.33756 35072 ft 446 kts 25°
2026-04-27 15:00 35.33913 -84.29919 35067 ft 446 kts 26°
2026-04-27 15:01 35.39289 -84.26111 35072 ft 447 kts 26°
2026-04-27 15:01 35.44632 -84.22311 35066 ft 447 kts 26°
2026-04-27 15:02 35.50013 -84.18484 35066 ft 447 kts 26°
2026-04-27 15:02 35.55399 -84.14648 35067 ft 447 kts 26°
2026-04-27 15:03 35.60778 -84.10803 35076 ft 447 kts 26°
2026-04-27 15:03 35.66155 -84.06959 35084 ft 447 kts 26°
2026-04-27 15:04 35.71533 -84.03108 35078 ft 447 kts 26°
2026-04-27 15:04 35.76914 -83.99245 35090 ft 447 kts 26°
2026-04-27 15:05 35.82295 -83.95382 35088 ft 448 kts 26°
2026-04-27 15:05 35.87676 -83.91510 35101 ft 448 kts 26°
2026-04-27 15:06 35.93111 -83.87783 35102 ft 446 kts 24°
2026-04-27 15:06 35.98607 -83.84224 35097 ft 446 kts 24°
2026-04-27 15:07 36.04100 -83.80660 35098 ft 446 kts 24°
2026-04-27 15:07 36.08668 -83.77691 35102 ft 446 kts 24°
2026-04-27 15:08 36.15059 -83.73537 35080 ft 446 kts 23°
2026-04-27 15:08 36.20556 -83.69953 35068 ft 446 kts 24°
2026-04-27 15:09 36.25154 -83.66948 35064 ft 447 kts 24°
2026-04-27 15:09 36.30653 -83.63354 35056 ft 447 kts 24°
2026-04-27 15:10 36.36148 -83.59757 35068 ft 447 kts 23°
2026-04-27 15:10 36.41612 -83.56171 35061 ft 447 kts 23°
2026-04-27 15:11 36.47113 -83.52558 35062 ft 447 kts 23°
2026-04-27 15:11 36.52588 -83.48954 35058 ft 445 kts 23°
2026-04-27 15:12 36.58058 -83.45349 35067 ft 445 kts 23°
2026-04-27 15:12 36.63530 -83.41739 35065 ft 446 kts 23°
2026-04-27 15:13 36.69008 -83.38112 35052 ft 445 kts 23°
2026-04-27 15:13 36.74480 -83.34488 35064 ft 446 kts 23°
2026-04-27 15:14 36.79960 -83.30858 35060 ft 446 kts 23°
2026-04-27 15:14 36.85441 -83.27215 35064 ft 447 kts 23°
2026-04-27 15:15 36.90934 -83.23555 35059 ft 447 kts 23°
2026-04-27 15:15 36.96429 -83.19892 35057 ft 447 kts 23°
2026-04-27 15:16 37.01918 -83.16227 35055 ft 447 kts 23°
2026-04-27 15:16 37.07404 -83.12558 35060 ft 447 kts 22°
2026-04-27 15:17 37.12880 -83.08890 35056 ft 447 kts 22°
2026-04-27 15:17 37.18361 -83.05212 35053 ft 446 kts 22°
2026-04-27 15:18 37.23834 -83.01533 35044 ft 447 kts 22°
2026-04-27 15:18 37.29309 -82.97832 35064 ft 447 kts 22°
2026-04-27 15:19 37.34798 -82.94128 35068 ft 448 kts 22°
2026-04-27 15:19 37.40292 -82.90420 35064 ft 448 kts 22°
2026-04-27 15:20 37.45779 -82.86710 35065 ft 448 kts 22°
2026-04-27 15:20 37.51272 -82.82990 35091 ft 449 kts 22°
2026-04-27 15:21 37.56776 -82.79261 35087 ft 449 kts 22°
2026-04-27 15:21 37.62238 -82.75550 35086 ft 448 kts 22°
2026-04-27 15:22 37.67760 -82.71784 35089 ft 448 kts 22°
2026-04-27 15:22 37.73238 -82.68046 35091 ft 448 kts 22°
2026-04-27 15:23 37.78683 -82.64322 35089 ft 448 kts 22°
2026-04-27 15:23 37.84198 -82.60545 35088 ft 448 kts 22°
2026-04-27 15:24 37.89643 -82.56807 35082 ft 448 kts 22°
2026-04-27 15:24 37.95117 -82.53043 35083 ft 448 kts 22°
2026-04-27 15:25 38.00598 -82.49272 35069 ft 448 kts 22°
2026-04-27 15:25 38.06081 -82.45496 35067 ft 449 kts 22°
2026-04-27 15:26 38.11566 -82.41710 35067 ft 449 kts 22°
2026-04-27 15:26 38.17036 -82.37921 35072 ft 446 kts 22°
2026-04-27 15:27 38.22470 -82.34155 35072 ft 444 kts 22°
2026-04-27 15:27 38.27896 -82.30388 35072 ft 444 kts 22°
2026-04-27 15:28 38.33321 -82.26621 35073 ft 444 kts 22°
2026-04-27 15:28 38.38744 -82.22842 35073 ft 444 kts 22°
2026-04-27 15:29 38.44172 -82.19063 35075 ft 444 kts 21°
2026-04-27 15:29 38.49855 -82.16672 35074 ft 426 kts
2026-04-27 15:30 38.52769 -82.16596 34845 ft 414 kts 349°
2026-04-27 15:30 38.55616 -82.17079 34562 ft 415 kts 346°
2026-04-27 15:30 38.58481 -82.17659 34305 ft 417 kts 346°
2026-04-27 15:30 38.61358 -82.18236 34053 ft 419 kts 347°
2026-04-27 15:31 38.64250 -82.18801 33791 ft 421 kts 347°
2026-04-27 15:31 38.67193 -82.19367 33519 ft 424 kts 347°
2026-04-27 15:31 38.70076 -82.19915 33256 ft 425 kts 347°
2026-04-27 15:31 38.72999 -82.20462 32726 ft 423 kts 347°
2026-04-27 15:32 38.75902 -82.20998 32052 ft 421 kts 348°
2026-04-27 15:32 38.78797 -82.21537 31360 ft 421 kts 348°
2026-04-27 15:32 38.81697 -82.22082 30667 ft 420 kts 348°
2026-04-27 15:32 38.84590 -82.22626 29908 ft 420 kts 348°
2026-04-27 15:33 38.87485 -82.23170 29064 ft 422 kts 348°
2026-04-27 15:33 38.90406 -82.23719 28228 ft 426 kts 348°
2026-04-27 15:33 38.93349 -82.24273 27415 ft 430 kts 348°
2026-04-27 15:33 38.96315 -82.24833 26650 ft 431 kts 348°
2026-04-27 15:34 38.99274 -82.25391 25942 ft 428 kts 348°
2026-04-27 15:34 39.02213 -82.25941 25270 ft 425 kts 348°
2026-04-27 15:34 39.05131 -82.26494 24598 ft 422 kts 348°
2026-04-27 15:34 39.08029 -82.27044 23934 ft 420 kts 348°
2026-04-27 15:35 39.10908 -82.27591 23195 ft 417 kts 348°
2026-04-27 15:35 39.13763 -82.28133 22468 ft 414 kts 349°
2026-04-27 15:35 39.16605 -82.28674 21730 ft 412 kts 349°
2026-04-27 15:35 39.19441 -82.29207 21029 ft 411 kts 349°
2026-04-27 15:36 39.22258 -82.29741 20352 ft 409 kts 349°
2026-04-27 15:36 39.25066 -82.30276 19701 ft 406 kts 349°
2026-04-27 15:36 39.27842 -82.30804 19071 ft 405 kts 349°
2026-04-27 15:36 39.30652 -82.31356 18504 ft 412 kts 347°
2026-04-27 15:37 39.33389 -82.32436 17376 ft 410 kts 332°
2026-04-27 15:37 39.35757 -82.34418 15935 ft 406 kts 318°
2026-04-27 15:37 39.37876 -82.36826 14509 ft 406 kts 316°
2026-04-27 15:37 39.39989 -82.39252 13022 ft 406 kts 317°
2026-04-27 15:38 39.42134 -82.41625 11530 ft 407 kts 318°
2026-04-27 15:38 39.44310 -82.43966 10177 ft 405 kts 320°
2026-04-27 15:38 39.46492 -82.46265 8863 ft 403 kts 320°
2026-04-27 15:38 39.48592 -82.48479 8144 ft 384 kts 320°
2026-04-27 15:39 39.50596 -82.50596 7769 ft 359 kts 319°
2026-04-27 15:39 39.52485 -82.52592 7461 ft 334 kts 319°
2026-04-27 15:39 39.54209 -82.54409 7229 ft 314 kts 319°
2026-04-27 15:39 39.55889 -82.56184 7027 ft 302 kts 319°
2026-04-27 15:40 39.57464 -82.57851 6980 ft 292 kts 319°
2026-04-27 15:40 39.59035 -82.59515 6983 ft 292 kts 319°
2026-04-27 15:40 39.60611 -82.61183 7002 ft 293 kts 319°
2026-04-27 15:40 39.62183 -82.62849 7016 ft 291 kts 319°
2026-04-27 15:41 39.63750 -82.64511 7019 ft 292 kts 319°
2026-04-27 15:41 39.65325 -82.66183 7023 ft 292 kts 319°
2026-04-27 15:41 39.66892 -82.67855 7033 ft 291 kts 319°
2026-04-27 15:41 39.68462 -82.69531 7027 ft 292 kts 319°
2026-04-27 15:42 39.70031 -82.71193 7024 ft 292 kts 319°
2026-04-27 15:42 39.71607 -82.72864 7024 ft 293 kts 319°
2026-04-27 15:42 39.73183 -82.74541 7026 ft 291 kts 319°
2026-04-27 15:42 39.74749 -82.76215 7010 ft 291 kts 319°
2026-04-27 15:43 39.76319 -82.77888 7022 ft 292 kts 319°
2026-04-27 15:43 39.77893 -82.79564 7020 ft 293 kts 318°
2026-04-27 15:43 39.79471 -82.81245 7022 ft 293 kts 318°
2026-04-27 15:43 39.81022 -82.82904 7013 ft 280 kts 318°
2026-04-27 15:44 39.82482 -82.84463 7004 ft 264 kts 318°
2026-04-27 15:44 39.83867 -82.85938 6984 ft 253 kts 318°
2026-04-27 15:44 39.85229 -82.87393 6664 ft 254 kts 317°
2026-04-27 15:44 39.86594 -82.88861 6222 ft 257 kts 317°
2026-04-27 15:45 39.87985 -82.90355 5754 ft 262 kts 317°
2026-04-27 15:45 39.89408 -82.91880 5258 ft 266 kts 317°
2026-04-27 15:45 39.90844 -82.93417 4790 ft 269 kts 317°
2026-04-27 15:45 39.92115 -82.95188 4281 ft 267 kts 295°
2026-04-27 15:46 39.92549 -82.97467 3758 ft 257 kts 265°
2026-04-27 15:46 39.92342 -82.99723 3195 ft 250 kts 255°
2026-04-27 15:46 39.91989 -83.01934 2595 ft 249 kts 254°
2026-04-27 15:46 39.91745 -83.04161 2259 ft 252 kts 262°
2026-04-27 15:47 39.91901 -83.06419 2340 ft 245 kts 284°
2026-04-27 15:47 39.92816 -83.08178 2292 ft 235 kts 324°
2026-04-27 15:47 39.94273 -83.08925 2239 ft 218 kts 346°
2026-04-27 15:47 39.95764 -83.09150 2251 ft 217 kts
2026-04-27 15:48 39.97220 -83.08677 2265 ft 216 kts 30°
2026-04-27 15:48 39.98402 -83.07551 2273 ft 209 kts 53°
2026-04-27 15:48 39.99091 -83.06096 2327 ft 177 kts 74°
2026-04-27 15:49 39.99578 -83.03312 2315 ft 155 kts 88°
2026-04-27 15:49 39.99738 -83.02004 2323 ft 137 kts 88°
2026-04-27 15:49 39.99877 -83.00796 2291 ft 132 kts 92°
2026-04-27 15:49 39.99844 -82.99621 2199 ft 129 kts 103°
2026-04-27 15:50 39.99780 -82.98459 2045 ft 127 kts 98°
2026-04-27 15:50 39.99704 -82.97330 1852 ft 124 kts 99°
2026-04-27 15:50 39.99658 -82.96192 1666 ft 129 kts 96°
2026-04-27 15:50 39.99586 -82.95042 1529 ft 128 kts 98°
2026-04-27 15:51 39.99530 -82.93894 1363 ft 125 kts 99°
2026-04-27 15:51 39.99467 -82.92757 1182 ft 125 kts 96°
2026-04-27 15:51 39.99410 -82.91642 984 ft 122 kts 97°
2026-04-27 15:51 39.99345 -82.90535 831 ft 120 kts 96°
2026-04-27 15:52 39.99297 -82.89701 831 ft 63 kts 94°
2026-04-27 15:52 39.99275 -82.89325 829 ft 33 kts 94°
2026-04-27 15:52 39.99257 -82.89014 830 ft 35 kts 94°
2026-04-27 15:52 39.99258 -82.88768 831 ft 16 kts 67°
2026-04-27 15:53 39.99304 -82.88622 831 ft 18 kts 68°
2026-04-27 15:53 39.99363 -82.88464 830 ft 20 kts 64°
2026-04-27 15:53 39.99402 -82.88358 830 ft 12 kts 59°
2026-04-27 15:53 39.99511 -82.88319 830 ft 17 kts
2026-04-27 15:54 39.99612 -82.88296 830 ft 11 kts 52°
2026-04-27 15:54 39.99655 -82.88215 830 ft 14 kts
2026-04-27 15:54 39.99695 -82.88212 830 ft 9 kts
2026-04-27 15:54 39.99726 -82.88210 830 ft 2 kts
2026-04-27 15:55 39.99732 -82.88209 830 ft 0 kts